| time (UTC) | temp C | wind direction | speed KPH | gust KPH | rain 1hr cm | rain 24hr cm | rain mn cm | humidity % | barometer mb |
| 20260831061059 | 15 | 0.0 | 0.0 | 0.00 | 0.00 | 0.00 | 75 | ||
| 20260831060026 | 16 | 273 | 0.0 | 3.2 | 0.00 | 0.00 | 0.00 | 74 | |
| 20260831055035 | 16 | 273 | 1.6 | 3.2 | 0.00 | 0.00 | 0.00 | 71 | |
| 20260831054023 | 16 | 283 | 3.2 | 6.4 | 0.00 | 0.00 | 0.00 | 70 | |
| 20260831053031 | 17 | 277 | 3.2 | 4.8 | 0.00 | 0.00 | 0.00 | 69 | |
| 20260831052020 | 17 | 297 | 3.2 | 6.4 | 0.00 | 0.00 | 0.00 | 68 | |
| 20260831051029 | 17 | 276 | 1.6 | 4.8 | 0.00 | 0.00 | 0.00 | 67 | |
| 20260831050036 | 17 | 291 | 4.8 | 8.0 | 0.00 | 0.00 | 0.00 | 66 | |
| 20260831045027 | 18 | 289 | 4.8 | 9.7 | 0.00 | 0.00 | 0.00 | 65 | |
| 20260831044114 | 18 | 335 | 4.8 | 9.7 | 0.00 | 0.00 | 0.00 | 63 | |
| 20260831043024 | 18 | 290 | 4.8 | 8.0 | 0.00 | 0.00 | 0.00 | 63 | |
| 20260831042031 | 18 | 314 | 4.8 | 9.7 | 0.00 | 0.00 | 0.00 | 62 | |
| 20260831041041 | 18 | 328 | 3.2 | 4.8 | 0.00 | 0.00 | 0.00 | 61 | |
| 20260831040029 | 18 | 339 | 3.2 | 6.4 | 0.00 | 0.00 | 0.00 | 60 | |
| 20260831035037 | 19 | 298 | 4.8 | 6.4 | 0.00 | 0.00 | 0.00 | 59 | |
| 20260831034026 | 19 | 346 | 4.8 | 6.4 | 0.00 | 0.00 | 0.00 | 57 | |
| 20260831033034 | 20 | 304 | 6.4 | 12.9 | 0.00 | 0.00 | 0.00 | 56 | |
| 20260831032024 | 20 | 28 | 8.0 | 14.5 | 0.00 | 0.00 | 0.00 | 56 | |
| 20260831031031 | 20 | 12 | 9.7 | 11.3 | 0.00 | 0.00 | 0.00 | 55 | |
| 20260831030021 | 21 | 11 | 6.4 | 11.3 | 0.00 | 0.00 | 0.00 | 55 | |
| 20260831025029 | 21 | 26 | 9.7 | 14.5 | 0.00 | 0.00 | 0.00 | 54 | |
| 20260831024037 | 21 | 350 | 9.7 | 16.1 | 0.00 | 0.00 | 0.00 | 53 | |
| 20260831023026 | 22 | 356 | 9.7 | 14.5 | 0.00 | 0.00 | 0.00 | 53 | |
| 20260831022054 | 22 | 43 | 8.0 | 12.9 | 0.00 | 0.00 | 0.00 | 52 | |
| 20260831021043 | 22 | 355 | 8.0 | 12.9 | 0.00 | 0.00 | 0.00 | 51 | |
| 20260831020031 | 22 | 359 | 11.3 | 19.3 | 0.00 | 0.00 | 0.00 | 51 | |
| 20260831015021 | 23 | 343 | 9.7 | 16.1 | 0.00 | 0.00 | 0.00 | 50 | |
| 20260831014028 | 23 | 357 | 9.7 | 11.3 | 0.00 | 0.00 | 0.00 | 50 | |
| 20260831013036 | 23 | 346 | 9.7 | 16.1 | 0.00 | 0.00 | 0.00 | 49 | |
| 20260831012025 | 23 | 359 | 9.7 | 11.3 | 0.00 | 0.00 | 0.00 | 49 | |
| 20260831011034 | 23 | 316 | 8.0 | 11.3 | 0.00 | 0.00 | 0.00 | 48 | |
| 20260831010023 | 23 | 323 | 11.3 | 19.3 | 0.00 | 0.00 | 0.00 | 48 | |
| 20260831005030 | 23 | 7 | 9.7 | 14.5 | 0.00 | 0.00 | 0.00 | 47 | |
| 20260831004020 | 23 | 287 | 8.0 | 20.9 | 0.00 | 0.00 | 0.00 | 47 | |
| 20260831003027 | 23 | 337 | 11.3 | 16.1 | 0.00 | 0.00 | 0.00 | 47 | |
| 20260831002038 | 24 | 314 | 11.3 | 17.7 | 0.00 | 0.00 | 0.00 | 47 | |
| 20260831001046 | 23 | 302 | 9.7 | 16.1 | 0.00 | 0.00 | 0.00 | 47 | |
| 20260831000035 | 23 | 309 | 9.7 | 17.7 | 0.00 | 0.00 | 0.00 | 47 | |
| 20260830235042 | 24 | 274 | 9.7 | 14.5 | 0.00 | 0.00 | 0.00 | 46 | |
| 20260830234030 | 24 | 340 | 8.0 | 14.5 | 0.00 | 0.00 | 0.00 | 45 | |
| 20260830233020 | 24 | 260 | 8.0 | 14.5 | 0.00 | 0.00 | 0.00 | 45 | |
| 20260830232027 | 24 | 297 | 8.0 | 16.1 | 0.00 | 0.00 | 0.00 | 45 | |
| 20260830231035 | 23 | 27 | 14.5 | 20.9 | 0.00 | 0.00 | 0.00 | 45 | |
| 20260830230026 | 23 | 323 | 11.3 | 17.7 | 0.00 | 0.00 | 0.00 | 46 | |
| 20260830225032 | 23 | 276 | 6.4 | 11.3 | 0.00 | 0.00 | 0.00 | 45 | |
| 20260830224021 | 24 | 13 | 11.3 | 17.7 | 0.00 | 0.00 | 0.00 | 43 | |
| 20260830223029 | 24 | 333 | 9.7 | 12.9 | 0.00 | 0.00 | 0.00 | 43 | |
| 20260830222037 | 24 | 250 | 8.0 | 14.5 | 0.00 | 0.00 | 0.00 | 44 | |
| 20260830221045 | 23 | 2 | 9.7 | 17.7 | 0.00 | 0.00 | 0.00 | 44 | |
| 20260830220053 | 23 | 251 | 11.3 | 17.7 | 0.00 | 0.00 | 0.00 | 44 | |
| 20260830215027 | 23 | 283 | 8.0 | 12.9 | 0.00 | 0.00 | 0.00 | 44 | |
| 20260830214031 | 23 | 276 | 9.7 | 14.5 | 0.00 | 0.00 | 0.00 | 45 | |
| 20260830213020 | 23 | 345 | 8.0 | 12.9 | 0.00 | 0.00 | 0.00 | 45 | |
| 20260830212033 | 23 | 319 | 11.3 | 16.1 | 0.00 | 0.00 | 0.00 | 46 | |
| 20260830211036 | 23 | 31 | 8.0 | 14.5 | 0.00 | 0.00 | 0.00 | 45 | |
| 20260830210027 | 23 | 302 | 12.9 | 16.1 | 0.00 | 0.00 | 0.00 | 45 | |
| 20260830205033 | 23 | 274 | 8.0 | 14.5 | 0.00 | 0.00 | 0.00 | 45 | |
| 20260830204022 | 23 | 279 | 9.7 | 14.5 | 0.00 | 0.00 | 0.00 | 46 | |
| 20260830203049 | 22 | 254 | 8.0 | 14.5 | 0.00 | 0.00 | 0.00 | 46 | |
| 20260830202020 | 22 | 255 | 12.9 | 20.9 | 0.00 | 0.00 | 0.00 | 48 | |
| 20260830201028 | 22 | 263 | 8.0 | 12.9 | 0.00 | 0.00 | 0.00 | 48 | |
| 20260830200036 | 22 | 260 | 9.7 | 14.5 | 0.00 | 0.00 | 0.00 | 49 | |
| 20260830195027 | 21 | 245 | 8.0 | 12.9 | 0.00 | 0.00 | 0.00 | 50 | |
| 20260830194033 | 21 | 348 | 9.7 | 19.3 | 0.00 | 0.00 | 0.00 | 50 | |
| 20260830193022 | 21 | 305 | 9.7 | 14.5 | 0.00 | 0.00 | 0.00 | 50 | |
| 20260830192030 | 21 | 252 | 8.0 | 14.5 | 0.00 | 0.00 | 0.00 | 52 | |
| 20260830191020 | 21 | 252 | 8.0 | 16.1 | 0.00 | 0.00 | 0.00 | 52 | |
| 20260830190027 | 21 | 274 | 8.0 | 11.3 | 0.00 | 0.00 | 0.00 | 52 | |
| 20260830185036 | 21 | 264 | 4.8 | 9.7 | 0.00 | 0.00 | 0.00 | 53 | |
| 20260830184025 | 20 | 342 | 9.7 | 16.1 | 0.00 | 0.00 | 0.00 | 53 | |
| 20260830183033 | 20 | 358 | 9.7 | 12.9 | 0.00 | 0.00 | 0.00 | 54 | |
| 20260830182024 | 20 | 16 | 8.0 | 11.3 | 0.00 | 0.00 | 0.00 | 54 | |
| 20260830181030 | 21 | 256 | 9.7 | 14.5 | 0.00 | 0.00 | 0.00 | 53 | |
| 20260830180020 | 20 | 347 | 6.4 | 11.3 | 0.00 | 0.00 | 0.00 | 56 | |
| 20260830175027 | 19 | 281 | 6.4 | 9.7 | 0.00 | 0.00 | 0.00 | 60 | |
| 20260830174036 | 19 | 264 | 8.0 | 9.7 | 0.00 | 0.00 | 0.00 | 61 | |
| 20260830173044 | 18 | 324 | 8.0 | 11.3 | 0.00 | 0.00 | 0.00 | 63 | |
| 20260830172053 | 19 | 278 | 4.8 | 8.0 | 0.00 | 0.00 | 0.00 | 63 | |
| 20260830171022 | 18 | 255 | 6.4 | 11.3 | 0.00 | 0.00 | 0.00 | 67 | |
| 20260830170030 | 17 | 253 | 6.4 | 9.7 | 0.00 | 0.00 | 0.00 | 67 | |
| 20260830165019 | 17 | 263 | 6.4 | 8.0 | 0.00 | 0.00 | 0.00 | 68 | |
| 20260830164027 | 17 | 261 | 6.4 | 9.7 | 0.00 | 0.00 | 0.00 | 68 | |
| 20260830163035 | 17 | 249 | 4.8 | 8.0 | 0.00 | 0.00 | 0.00 | 69 | |
| 20260830162024 | 17 | 263 | 4.8 | 9.7 | 0.00 | 0.00 | 0.00 | 70 | |
| 20260830161035 | 16 | 293 | 6.4 | 8.0 | 0.00 | 0.00 | 0.00 | 71 | |
| 20260830155029 | 16 | 43 | 3.2 | 6.4 | 0.00 | 0.00 | 0.00 | 71 | |
| 20260830154037 | 16 | 254 | 3.2 | 6.4 | 0.00 | 0.00 | 0.00 | 71 | |
| 20260830153026 | 16 | 229 | 3.2 | 4.8 | 0.00 | 0.00 | 0.00 | 73 | |
| 20260830152035 | 15 | 277 | 3.2 | 4.8 | 0.00 | 0.00 | 0.00 | 77 | |
| 20260830151027 | 14 | 232 | 1.6 | 4.8 | 0.00 | 0.00 | 0.00 | 80 | |
| 20260830150034 | 13 | 287 | 1.6 | 3.2 | 0.00 | 0.00 | 0.00 | 84 | |
| 20260830145021 | 12 | 268 | 3.2 | 4.8 | 0.00 | 0.00 | 0.00 | 87 | |
| 20260830144030 | 12 | 225 | 0.0 | 1.6 | 0.00 | 0.00 | 0.00 | 89 | |
| 20260830143019 | 11 | 229 | 0.0 | 3.2 | 0.00 | 0.00 | 0.00 | 92 | |
| 20260830142027 | 10 | 257 | 3.2 | 4.8 | 0.00 | 0.00 | 0.00 | 98 | |
| 20260830141035 | 9 | 245 | 3.2 | 3.2 | 0.00 | 0.00 | 0.00 | 99 | |
| 20260830140107 | 8 | 0.0 | 0.0 | 0.00 | 0.00 | 0.00 | 99 | ||
| 20260830135114 | 8 | 0.0 | 0.0 | 0.00 | 0.00 | 0.00 | 99 | ||
| 20260830134022 | 8 | 0.0 | 0.0 | 0.00 | 0.00 | 0.00 | 99 | ||
| 20260830133030 | 8 | 0.0 | 0.0 | 0.00 | 0.00 | 0.00 | 99 | ||
| 20260830132019 | 8 | 0.0 | 0.0 | 0.00 | 0.00 | 0.00 | 99 | ||
| 20260830131048 | 8 | 0.0 | 0.0 | 0.00 | 0.00 | 0.00 | 99 | ||
| 20260830130035 | 8 | 0.0 | 0.0 | 0.00 | 0.00 | 0.00 | 99 | ||
| 20260830125027 | 8 | 0.0 | 0.0 | 0.00 | 0.00 | 0.00 | 99 | ||
| 20260830124033 | 8 | 0.0 | 0.0 | 0.00 | 0.00 | 0.00 | 99 | ||
| 20260830123022 | 8 | 0.0 | 0.0 | 0.00 | 0.00 | 0.00 | 99 | ||
| 20260830122030 | 8 | 0.0 | 0.0 | 0.00 | 0.00 | 0.00 | 99 | ||
| 20260830121020 | 9 | 0.0 | 0.0 | 0.00 | 0.00 | 0.00 | 99 | ||
| 20260830120028 | 9 | 0.0 | 0.0 | 0.00 | 0.00 | 0.00 | 99 | ||
| 20260830115036 | 9 | 0.0 | 0.0 | 0.00 | 0.00 | 0.00 | 99 | ||
| 20260830114025 | 9 | 0.0 | 0.0 | 0.00 | 0.00 | 0.00 | 99 | ||
| 20260830113034 | 9 | 0.0 | 0.0 | 0.00 | 0.00 | 0.00 | 97 | ||
| 20260830112103 | 9 | 0.0 | 0.0 | 0.00 | 0.00 | 0.00 | 98 | ||
| 20260830111051 | 10 | 0.0 | 0.0 | 0.00 | 0.00 | 0.00 | 98 | ||
| 20260830110040 | 10 | 0.0 | 0.0 | 0.00 | 0.00 | 0.00 | 97 | ||
| 20260830105028 | 10 | 0.0 | 0.0 | 0.00 | 0.00 | 0.00 | 97 | ||
| 20260830104036 | 10 | 0.0 | 0.0 | 0.00 | 0.00 | 0.00 | 96 | ||
| 20260830103026 | 10 | 0.0 | 0.0 | 0.00 | 0.00 | 0.00 | 96 | ||
| 20260830102034 | 10 | 0.0 | 0.0 | 0.00 | 0.00 | 0.00 | 94 | ||
| 20260830101023 | 10 | 0.0 | 0.0 | 0.00 | 0.00 | 0.00 | 94 | ||
| 20260830100031 | 10 | 0.0 | 0.0 | 0.00 | 0.00 | 0.00 | 93 | ||
| 20260830095020 | 10 | 0.0 | 0.0 | 0.00 | 0.00 | 0.00 | 92 | ||
| 20260830094029 | 11 | 0.0 | 0.0 | 0.00 | 0.00 | 0.00 | 92 | ||
| 20260830093039 | 11 | 0.0 | 0.0 | 0.00 | 0.00 | 0.00 | 91 | ||
| 20260830092026 | 11 | 0.0 | 0.0 | 0.00 | 0.00 | 0.00 | 91 | ||
| 20260830091034 | 11 | 0.0 | 0.0 | 0.00 | 0.00 | 0.00 | 91 | ||
| 20260830090024 | 11 | 0.0 | 0.0 | 0.00 | 0.00 | 0.00 | 91 | ||
| 20260830085032 | 11 | 0.0 | 0.0 | 0.00 | 0.00 | 0.00 | 91 | ||
| 20260830084021 | 11 | 0.0 | 0.0 | 0.00 | 0.00 | 0.00 | 91 | ||
| 20260830083029 | 10 | 0.0 | 0.0 | 0.00 | 0.00 | 0.00 | 93 | ||
| 20260830082019 | 10 | 0.0 | 0.0 | 0.00 | 0.00 | 0.00 | 91 | ||
| 20260830081047 | 11 | 0.0 | 0.0 | 0.00 | 0.00 | 0.00 | 89 | ||
| 20260830080034 | 11 | 0.0 | 0.0 | 0.00 | 0.00 | 0.00 | 89 | ||
| 20260830075043 | 11 | 0.0 | 0.0 | 0.00 | 0.00 | 0.00 | 89 | ||
| 20260830074032 | 11 | 68 | 0.0 | 3.2 | 0.00 | 0.00 | 0.00 | 87 | |
| 20260830073021 | 11 | 82 | 1.6 | 3.2 | 0.00 | 0.00 | 0.00 | 87 | |
| 20260830072050 | 12 | 0.0 | 0.0 | 0.00 | 0.00 | 0.00 | 85 | ||
| 20260830071039 | 12 | 0.0 | 0.0 | 0.00 | 0.00 | 0.00 | 85 | ||
| 20260830070128 | 12 | 0.0 | 0.0 | 0.00 | 0.00 | 0.00 | 85 | ||
| 20260830065035 | 12 | 249 | 1.6 | 3.2 | 0.00 | 0.00 | 0.00 | 84 | |
| 20260830064025 | 13 | 0.0 | 0.0 | 0.00 | 0.00 | 0.00 | 82 | ||
| 20260830063053 | 13 | 225 | 0.0 | 4.8 | 0.00 | 0.00 | 0.00 | 81 | |
| 20260830062022 | 13 | 260 | 1.6 | 4.8 | 0.00 | 0.00 | 0.00 | 80 |